User: anonymous   Login
Location: Caltech
(34.1382°N, 118.1253°W)
Time: 08:39:32
(UTC-08:00)
Language:

OAO 2 Rocket - Orbit

View from above orbital plane
View from above orbital plane
View from above satellite
View from above satellite

Ground track
Ground track

The orbit data is extracted from the following two-line orbital elements,

1 03598U 68110B   15031.91131708  .00000467  00000-0  11281-3 0  8230
2 03598 034.9927 193.5187 0049078 033.9117 107.1450 14.53899634440162
Epoch (UTC): 31 January 2015 21:52:17
Eccentricity: 0.0049078
inclination: 34.9927°
perigee height: 678 km
apogee height: 748 km
right ascension of ascending node: 193.5187°
argument of perigee: 33.9117°
revolutions per day: 14.53899634
mean anomaly at epoch: 107.1450°
orbit number at epoch: 44016

The dashed part of the orbit path shows where the satellite is in the earth's shadow,  

DLR